| time (UTC) | temp F | wind direction | speed MPH | gust MPH | rain 1hr in | rain 24hr in | rain mn in | humidity % | barometer mb |
| 20260505014421 | 69 | 225 | 16.0 | 23.0 | 0.00 | 0.00 | 0.00 | 42 | 983.3 |
| 20260505013918 | 69 | 225 | 12.0 | 17.0 | 0.00 | 0.00 | 0.00 | 42 | 983.3 |
| 20260505013421 | 69 | 203 | 8.0 | 14.0 | 0.00 | 0.00 | 0.00 | 41 | 983.2 |
| 20260505012920 | 70 | 203 | 7.0 | 10.0 | 0.00 | 0.00 | 0.00 | 40 | 983.1 |
| 20260505012418 | 70 | 180 | 7.0 | 9.0 | 0.00 | 0.00 | 0.00 | 39 | 983.0 |
| 20260505011918 | 70 | 180 | 9.0 | 18.0 | 0.00 | 0.00 | 0.00 | 39 | 983.1 |
| 20260505011421 | 70 | 203 | 8.0 | 14.0 | 0.00 | 0.00 | 0.00 | 39 | 983.0 |
| 20260505010921 | 70 | 203 | 7.0 | 10.0 | 0.00 | 0.00 | 0.00 | 39 | 983.0 |
| 20260505010440 | 70 | 203 | 15.0 | 19.0 | 0.00 | 0.00 | 0.00 | 39 | 983.0 |
| 20260505005920 | 70 | 203 | 13.0 | 18.0 | 0.00 | 0.00 | 0.00 | 39 | 982.9 |
| 20260505005418 | 70 | 203 | 8.0 | 14.0 | 0.00 | 0.00 | 0.00 | 39 | 982.9 |
| 20260505004941 | 70 | 203 | 9.0 | 14.0 | 0.00 | 0.00 | 0.00 | 39 | 982.9 |
| 20260505004421 | 71 | 203 | 9.0 | 13.0 | 0.00 | 0.00 | 0.00 | 38 | 982.7 |
| 20260505003918 | 71 | 225 | 12.0 | 14.0 | 0.00 | 0.00 | 0.00 | 38 | 982.7 |
| 20260505003418 | 71 | 225 | 14.0 | 18.0 | 0.00 | 0.00 | 0.00 | 38 | 982.6 |
| 20260505002918 | 71 | 225 | 16.0 | 21.0 | 0.00 | 0.00 | 0.00 | 38 | 982.4 |
| 20260505002438 | 71 | 225 | 14.0 | 18.0 | 0.00 | 0.00 | 0.00 | 38 | 982.4 |
| 20260505001958 | 71 | 225 | 16.0 | 18.0 | 0.00 | 0.00 | 0.00 | 38 | 982.4 |
| 20260505001418 | 71 | 225 | 16.0 | 17.0 | 0.00 | 0.00 | 0.00 | 37 | 982.4 |
| 20260505000918 | 72 | 203 | 16.0 | 21.0 | 0.00 | 0.00 | 0.00 | 37 | 982.3 |
| 20260505000420 | 72 | 225 | 17.0 | 23.0 | 0.00 | 0.00 | 0.00 | 37 | 982.2 |
| 20260504235918 | 72 | 225 | 18.0 | 20.0 | 0.00 | 0.00 | 0.00 | 38 | 982.2 |
| 20260504235418 | 72 | 225 | 19.0 | 24.0 | 0.00 | 0.00 | 0.00 | 38 | 982.2 |
| 20260504234918 | 72 | 225 | 19.0 | 22.0 | 0.00 | 0.00 | 0.00 | 38 | 982.3 |
| 20260504234417 | 72 | 225 | 21.0 | 29.0 | 0.00 | 0.00 | 0.00 | 38 | 982.1 |
| 20260504233938 | 72 | 225 | 18.0 | 22.0 | 0.00 | 0.00 | 0.00 | 37 | 982.1 |
| 20260504233418 | 72 | 225 | 16.0 | 21.0 | 0.00 | 0.00 | 0.00 | 37 | 982.2 |
| 20260504232918 | 73 | 225 | 21.0 | 27.0 | 0.00 | 0.00 | 0.00 | 36 | 981.9 |
| 20260504232418 | 73 | 225 | 20.0 | 24.0 | 0.00 | 0.00 | 0.00 | 37 | 982.0 |
| 20260504231918 | 73 | 225 | 19.0 | 25.0 | 0.00 | 0.00 | 0.00 | 37 | 981.9 |
| 20260504231418 | 73 | 225 | 16.0 | 22.0 | 0.00 | 0.00 | 0.00 | 38 | 981.9 |
| 20260504230919 | 73 | 225 | 22.0 | 25.0 | 0.00 | 0.00 | 0.00 | 37 | 981.8 |
| 20260504230418 | 74 | 225 | 19.0 | 20.0 | 0.00 | 0.00 | 0.00 | 37 | 981.8 |
| 20260504225919 | 74 | 225 | 19.0 | 26.0 | 0.00 | 0.00 | 0.00 | 37 | 981.7 |
| 20260504225418 | 74 | 225 | 19.0 | 25.0 | 0.00 | 0.00 | 0.00 | 38 | 981.7 |
| 20260504224917 | 74 | 225 | 20.0 | 25.0 | 0.00 | 0.00 | 0.00 | 37 | 981.8 |
| 20260504224418 | 74 | 225 | 20.0 | 28.0 | 0.00 | 0.00 | 0.00 | 37 | 981.9 |
| 20260504223917 | 74 | 225 | 24.0 | 32.0 | 0.00 | 0.00 | 0.00 | 37 | 981.9 |
| 20260504223438 | 74 | 225 | 22.0 | 29.0 | 0.00 | 0.00 | 0.00 | 38 | 982.0 |
| 20260504222918 | 74 | 225 | 22.0 | 28.0 | 0.00 | 0.00 | 0.00 | 37 | 982.0 |
| 20260504222418 | 74 | 225 | 25.0 | 28.0 | 0.00 | 0.00 | 0.00 | 38 | 982.0 |
| 20260504221918 | 74 | 225 | 21.0 | 28.0 | 0.00 | 0.00 | 0.00 | 37 | 982.1 |
| 20260504221418 | 74 | 203 | 25.0 | 30.0 | 0.00 | 0.00 | 0.00 | 37 | 982.1 |
| 20260504220918 | 74 | 225 | 24.0 | 31.0 | 0.00 | 0.00 | 0.00 | 37 | 982.1 |
| 20260504220418 | 74 | 225 | 20.0 | 31.0 | 0.00 | 0.00 | 0.00 | 37 | 982.2 |
| 20260504215938 | 74 | 225 | 19.0 | 22.0 | 0.00 | 0.00 | 0.00 | 37 | 982.2 |
| 20260504215438 | 74 | 225 | 26.0 | 35.0 | 0.00 | 0.00 | 0.00 | 36 | 981.9 |
| 20260504214917 | 74 | 225 | 21.0 | 27.0 | 0.00 | 0.00 | 0.00 | 36 | 982.2 |
| 20260504214417 | 74 | 225 | 20.0 | 23.0 | 0.00 | 0.00 | 0.00 | 37 | 982.2 |
| 20260504213918 | 74 | 225 | 21.0 | 24.0 | 0.00 | 0.00 | 0.00 | 38 | 982.3 |
| 20260504213418 | 74 | 225 | 23.0 | 28.0 | 0.00 | 0.00 | 0.00 | 38 | 982.1 |
| 20260504212918 | 74 | 225 | 15.0 | 20.0 | 0.00 | 0.00 | 0.00 | 38 | 982.3 |
| 20260504212417 | 74 | 225 | 17.0 | 21.0 | 0.00 | 0.00 | 0.00 | 38 | 982.3 |
| 20260504211938 | 74 | 225 | 21.0 | 25.0 | 0.00 | 0.00 | 0.00 | 37 | 982.2 |
| 20260504211417 | 74 | 225 | 17.0 | 22.0 | 0.00 | 0.00 | 0.00 | 39 | 982.4 |
| 20260504210918 | 74 | 180 | 9.0 | 17.0 | 0.00 | 0.00 | 0.00 | 40 | 982.5 |
| 20260504210420 | 74 | 225 | 12.0 | 18.0 | 0.00 | 0.00 | 0.00 | 39 | 982.6 |
| 20260504205919 | 73 | 203 | 14.0 | 23.0 | 0.00 | 0.00 | 0.00 | 39 | 982.6 |
| 20260504205418 | 73 | 203 | 12.0 | 17.0 | 0.00 | 0.00 | 0.00 | 39 | 982.7 |
| 20260504204919 | 73 | 225 | 12.0 | 17.0 | 0.00 | 0.00 | 0.00 | 40 | 982.8 |
| 20260504204419 | 73 | 203 | 9.0 | 17.0 | 0.00 | 0.00 | 0.00 | 39 | 982.9 |
| 20260504203919 | 73 | 203 | 8.0 | 15.0 | 0.00 | 0.00 | 0.00 | 39 | 983.0 |
| 20260504203417 | 73 | 180 | 14.0 | 22.0 | 0.00 | 0.00 | 0.00 | 37 | 983.0 |
| 20260504202919 | 73 | 225 | 15.0 | 18.0 | 0.00 | 0.00 | 0.00 | 39 | 983.1 |
| 20260504202438 | 73 | 225 | 22.0 | 29.0 | 0.00 | 0.00 | 0.00 | 38 | 983.1 |
| 20260504201920 | 73 | 225 | 24.0 | 33.0 | 0.00 | 0.00 | 0.00 | 39 | 983.2 |
| 20260504201421 | 73 | 225 | 19.0 | 20.0 | 0.00 | 0.00 | 0.00 | 38 | 983.3 |
| 20260504200918 | 73 | 225 | 15.0 | 20.0 | 0.00 | 0.00 | 0.00 | 38 | 983.4 |
| 20260504200418 | 72 | 203 | 16.0 | 23.0 | 0.00 | 0.00 | 0.00 | 38 | 983.4 |
| 20260504195917 | 72 | 203 | 19.0 | 25.0 | 0.00 | 0.00 | 0.00 | 38 | 983.5 |
| 20260504195419 | 72 | 225 | 22.0 | 25.0 | 0.00 | 0.00 | 0.00 | 38 | 983.6 |
| 20260504194918 | 72 | 225 | 17.0 | 23.0 | 0.00 | 0.00 | 0.00 | 36 | 983.6 |
| 20260504194417 | 72 | 225 | 15.0 | 21.0 | 0.00 | 0.00 | 0.00 | 35 | 983.6 |
| 20260504193940 | 72 | 225 | 25.0 | 30.0 | 0.00 | 0.00 | 0.00 | 37 | 983.8 |
| 20260504193437 | 72 | 203 | 11.0 | 17.0 | 0.00 | 0.00 | 0.00 | 37 | 984.0 |
| 20260504192918 | 72 | 203 | 11.0 | 16.0 | 0.00 | 0.00 | 0.00 | 38 | 984.0 |
| 20260504192418 | 71 | 203 | 12.0 | 20.0 | 0.00 | 0.00 | 0.00 | 39 | 984.1 |
| 20260504191958 | 71 | 203 | 11.0 | 14.0 | 0.00 | 0.00 | 0.00 | 39 | 984.1 |
| 20260504191421 | 71 | 203 | 10.0 | 15.0 | 0.00 | 0.00 | 0.00 | 38 | 984.1 |
| 20260504190920 | 71 | 225 | 14.0 | 20.0 | 0.00 | 0.00 | 0.00 | 40 | 984.3 |
| 20260504190419 | 71 | 203 | 8.0 | 12.0 | 0.00 | 0.00 | 0.00 | 39 | 984.4 |
| 20260504185920 | 71 | 203 | 12.0 | 23.0 | 0.00 | 0.00 | 0.00 | 41 | 984.4 |
| 20260504185419 | 71 | 225 | 10.0 | 18.0 | 0.00 | 0.00 | 0.00 | 40 | 984.4 |
| 20260504184919 | 70 | 225 | 16.0 | 21.0 | 0.00 | 0.00 | 0.00 | 40 | 984.5 |
| 20260504184421 | 70 | 203 | 12.0 | 18.0 | 0.00 | 0.00 | 0.00 | 41 | 984.6 |
| 20260504183918 | 70 | 203 | 13.0 | 23.0 | 0.00 | 0.00 | 0.00 | 40 | 984.8 |
| 20260504183419 | 70 | 203 | 20.0 | 27.0 | 0.00 | 0.00 | 0.00 | 40 | 985.0 |
| 20260504182917 | 70 | 180 | 10.0 | 17.0 | 0.00 | 0.00 | 0.00 | 40 | 984.8 |
| 20260504182419 | 70 | 203 | 7.0 | 12.0 | 0.00 | 0.00 | 0.00 | 39 | 984.9 |
| 20260504181919 | 70 | 203 | 10.0 | 14.0 | 0.00 | 0.00 | 0.00 | 40 | 985.0 |
| 20260504181417 | 70 | 203 | 10.0 | 18.0 | 0.00 | 0.00 | 0.00 | 40 | 985.1 |
| 20260504180918 | 70 | 225 | 10.0 | 13.0 | 0.00 | 0.00 | 0.00 | 38 | 985.3 |
| 20260504180418 | 70 | 225 | 14.0 | 22.0 | 0.00 | 0.00 | 0.00 | 39 | 985.1 |
| 20260504175940 | 69 | 203 | 11.0 | 19.0 | 0.00 | 0.00 | 0.00 | 40 | 985.3 |
| 20260504175437 | 69 | 225 | 13.0 | 19.0 | 0.00 | 0.00 | 0.00 | 39 | 985.4 |
| 20260504174920 | 69 | 203 | 12.0 | 20.0 | 0.00 | 0.00 | 0.00 | 41 | 985.5 |
| 20260504174417 | 69 | 203 | 9.0 | 17.0 | 0.00 | 0.00 | 0.00 | 41 | 985.5 |
| 20260504173917 | 69 | 203 | 6.0 | 8.0 | 0.00 | 0.00 | 0.00 | 42 | 985.7 |
| 20260504173419 | 68 | 180 | 6.0 | 10.0 | 0.00 | 0.00 | 0.00 | 42 | 985.6 |
| 20260504172917 | 68 | 203 | 10.0 | 16.0 | 0.00 | 0.00 | 0.00 | 40 | 985.8 |
| 20260504172417 | 68 | 225 | 17.0 | 20.0 | 0.00 | 0.00 | 0.00 | 40 | 985.8 |
| 20260504171917 | 68 | 203 | 7.0 | 15.0 | 0.00 | 0.00 | 0.00 | 43 | 985.8 |
| 20260504171417 | 68 | 203 | 8.0 | 13.0 | 0.00 | 0.00 | 0.00 | 41 | 985.9 |
| 20260504170918 | 67 | 203 | 10.0 | 16.0 | 0.00 | 0.00 | 0.00 | 43 | 985.9 |
| 20260504170418 | 67 | 225 | 10.0 | 19.0 | 0.00 | 0.00 | 0.00 | 42 | 985.9 |
| 20260504160417 | 65 | 225 | 9.0 | 16.0 | 0.00 | 0.00 | 0.00 | 43 | 986.2 |
| 20260504150937 | 63 | 203 | 7.0 | 11.0 | 0.00 | 0.00 | 0.00 | 45 | 986.5 |
| 20260504150437 | 63 | 203 | 7.0 | 11.0 | 0.00 | 0.00 | 0.00 | 45 | 986.5 |
| 20260504140917 | 62 | 225 | 17.0 | 19.0 | 0.00 | 0.00 | 0.00 | 45 | 986.9 |
| 20260504140417 | 62 | 225 | 14.0 | 17.0 | 0.00 | 0.00 | 0.00 | 46 | 986.9 |
| 20260504130417 | 58 | 225 | 15.0 | 17.0 | 0.00 | 0.00 | 0.00 | 48 | 987.4 |
| 20260504110418 | 52 | 225 | 11.0 | 15.0 | 0.00 | 0.00 | 0.00 | 51 | 987.1 |
| 20260504100420 | 52 | 225 | 17.0 | 21.0 | 0.00 | 0.00 | 0.00 | 51 | 987.0 |
| 20260504081918 | 53 | 225 | 16.0 | 26.0 | 0.00 | 0.00 | 0.00 | 48 | 987.7 |
| 20260504081418 | 53 | 203 | 14.0 | 19.0 | 0.00 | 0.00 | 0.00 | 48 | 987.7 |
| 20260504080920 | 53 | 225 | 17.0 | 23.0 | 0.00 | 0.00 | 0.00 | 48 | 987.9 |
| 20260504080420 | 53 | 203 | 16.0 | 24.0 | 0.00 | 0.00 | 0.00 | 48 | 987.9 |
| 20260504050418 | 53 | 225 | 10.0 | 16.0 | 0.00 | 0.00 | 0.00 | 48 | 990.3 |
| 20260504045918 | 53 | 203 | 13.0 | 21.0 | 0.00 | 0.00 | 0.00 | 48 | 990.4 |
| 20260504045418 | 53 | 225 | 12.0 | 22.0 | 0.00 | 0.00 | 0.00 | 48 | 990.4 |
| 20260504044939 | 53 | 225 | 15.0 | 22.0 | 0.00 | 0.00 | 0.00 | 49 | 990.4 |
| 20260504044438 | 53 | 203 | 12.0 | 18.0 | 0.00 | 0.00 | 0.00 | 49 | 990.5 |
| 20260504043918 | 52 | 203 | 14.0 | 19.0 | 0.00 | 0.00 | 0.00 | 49 | 990.6 |
| 20260504043418 | 52 | 203 | 11.0 | 20.0 | 0.00 | 0.00 | 0.00 | 49 | 990.5 |
| 20260504042958 | 52 | 203 | 12.0 | 20.0 | 0.00 | 0.00 | 0.00 | 49 | 990.5 |
| 20260504042438 | 52 | 203 | 11.0 | 17.0 | 0.00 | 0.00 | 0.00 | 49 | 990.6 |
| 20260504041918 | 52 | 203 | 11.0 | 16.0 | 0.00 | 0.00 | 0.00 | 49 | 990.7 |
| 20260504041418 | 52 | 225 | 10.0 | 15.0 | 0.00 | 0.00 | 0.00 | 50 | 990.7 |
| 20260504040921 | 52 | 203 | 8.0 | 11.0 | 0.00 | 0.00 | 0.00 | 50 | 990.7 |
| 20260504040458 | 52 | 203 | 8.0 | 14.0 | 0.00 | 0.00 | 0.00 | 50 | 990.8 |
| 20260504035939 | 52 | 203 | 7.0 | 15.0 | 0.00 | 0.00 | 0.00 | 50 | 990.9 |
| 20260504035420 | 52 | 203 | 10.0 | 14.0 | 0.00 | 0.00 | 0.00 | 51 | 991.0 |
| 20260504034920 | 52 | 203 | 8.0 | 11.0 | 0.00 | 0.00 | 0.00 | 51 | 991.0 |
| 20260504034420 | 52 | 180 | 5.0 | 9.0 | 0.00 | 0.00 | 0.00 | 51 | 991.1 |
| 20260504033920 | 52 | 203 | 9.0 | 14.0 | 0.00 | 0.00 | 0.00 | 51 | 991.1 |
| 20260504033420 | 52 | 225 | 8.0 | 16.0 | 0.00 | 0.00 | 0.00 | 52 | 991.2 |
| 20260504032920 | 52 | 180 | 6.0 | 10.0 | 0.00 | 0.00 | 0.00 | 51 | 991.3 |
| 20260504032438 | 52 | 180 | 8.0 | 14.0 | 0.00 | 0.00 | 0.00 | 52 | 991.3 |
| 20260504031940 | 52 | 203 | 6.0 | 12.0 | 0.00 | 0.00 | 0.00 | 51 | 991.3 |
| 20260504031438 | 52 | 203 | 6.0 | 8.0 | 0.00 | 0.00 | 0.00 | 51 | 991.4 |
| 20260504030921 | 52 | 203 | 6.0 | 9.0 | 0.00 | 0.00 | 0.00 | 51 | 991.5 |
| 20260504030418 | 52 | 203 | 5.0 | 8.0 | 0.00 | 0.00 | 0.00 | 51 | 991.6 |
| 20260504025918 | 52 | 203 | 7.0 | 9.0 | 0.00 | 0.00 | 0.00 | 51 | 991.7 |
| 20260504025418 | 52 | 180 | 7.0 | 13.0 | 0.00 | 0.00 | 0.00 | 51 | 991.7 |
| 20260504024918 | 52 | 203 | 6.0 | 11.0 | 0.00 | 0.00 | 0.00 | 50 | 991.8 |
| 20260504024418 | 53 | 225 | 7.0 | 13.0 | 0.00 | 0.00 | 0.00 | 50 | 991.8 |
| 20260504023918 | 53 | 203 | 6.0 | 10.0 | 0.00 | 0.00 | 0.00 | 50 | 991.9 |
| 20260504023418 | 53 | 203 | 7.0 | 17.0 | 0.00 | 0.00 | 0.00 | 50 | 991.8 |
| 20260504022958 | 53 | 203 | 7.0 | 11.0 | 0.00 | 0.00 | 0.00 | 50 | 991.9 |
| 20260504022418 | 53 | 203 | 7.0 | 10.0 | 0.00 | 0.00 | 0.00 | 50 | 992.0 |
| 20260504021918 | 53 | 203 | 7.0 | 11.0 | 0.00 | 0.00 | 0.00 | 50 | 991.9 |
| 20260504021418 | 53 | 203 | 6.0 | 11.0 | 0.00 | 0.00 | 0.00 | 50 | 991.9 |
| 20260504020938 | 53 | 203 | 10.0 | 15.0 | 0.00 | 0.00 | 0.00 | 50 | 992.0 |
| 20260504020418 | 53 | 203 | 9.0 | 13.0 | 0.00 | 0.00 | 0.00 | 49 | 991.9 |
| 20260504015917 | 53 | 225 | 7.0 | 16.0 | 0.00 | 0.00 | 0.00 | 49 | 992.0 |
| 20260504015419 | 53 | 225 | 11.0 | 14.0 | 0.00 | 0.00 | 0.00 | 48 | 992.0 |
| 20260504014918 | 53 | 203 | 7.0 | 10.0 | 0.00 | 0.00 | 0.00 | 48 | 992.0 |